x

Buoy A01 - Mass. Bay/stellwagen (44029) Wave Buoy

5:04am - Wed 22nd Feb 2017 All times are EST. -5 hours from GMT.

  • Sig Wave height 3.6ft
  • Peak Period 8s
  • Wind
    16mph, 18mph gusts
  • Sea Temp 41°f
  • Air Temp 40°f
  • Sea Pressure 1015.4mb
  • Buoy A01 - Mass. Bay/stellwagen
  • Buoy A01 - Mass. Bay/stellwagen

More Historic Weather Station data

Upgrade to MSW Pro to gain access to the past 30 days of data for over 8000 Wavebouys and Weather Stations around the globe.

Join Pro

Comparision Forecast

View Surf forecast
   
Wed 02/22 5:04am 3.5ft 8s 16 18 mph 1015.4mb 41f 40f
4:04am 3.5ft 4s 16 18 mph 1016.2mb 41f 40f
3:04am 3.5ft 4s 18 20 mph 1016.2mb 41f 39f
2:04am 3.5ft 8s 18 20 mph 1016.9mb 41f 39f
1:04am 2.5ft 7s 16 20 mph 1017.8mb 41f 39f
12:04am 4ft 4s 16 20 mph 1018.6mb 41f 39f
Tue 02/21 11:04pm 4ft 4s 18 22 mph 1019.1mb 41f 39f
10:04pm 4.5ft 4s 18 20 mph 1019.6mb 41f 39f
9:04pm 4.5ft 4s 18 20 mph 1020.5mb 41f 39f
8:04pm 3.5ft 4s 20 22 mph 1020.6mb 41f 40f
7:04pm 3.5ft 6s 20 22 mph 1021.5mb 41f 39f
6:04pm 3.5ft 6s 16 18 mph 1021.9mb 41f 39f
5:04pm 3.5ft 6s 13 16 mph 1022.4mb 41f 38f
4:04pm 4ft 6s 11 13 mph 1023mb 41f 38f
3:04pm 4ft 7s 9 11 mph 1023.8mb 40f 37f
2:04pm 3.5ft 6s 7 9 mph 1024.4mb 41f 38f
1:04pm 3.5ft 6s 4 7 mph 1025.4mb 40f 37f
12:04pm 3ft 7s 4 7 mph 1026.2mb 40f 37f
11:04am 3.5ft 6s 7 9 mph 1026.8mb 40f 37f
10:04am 3ft 6s 7 9 mph 1027.3mb 40f 37f
9:04am 3.5ft 6s 9 11 mph 1027.6mb 40f 38f
8:04am 3ft 6s 7 9 mph 1027.8mb 40f 38f
7:04am 3ft 6s 9 13 mph 1027.4mb 40f 38f
6:04am 3ft 5s 11 13 mph 1026.8mb 40f 37f
5:04am 3.5ft 6s 11 13 mph 1026.8mb 40f 37f
4:04am 4.5ft 6s 11 13 mph 1027mb 40f 38f
3:04am 4.5ft 6s 13 18 mph 1026.8mb 40f 38f
2:04am 3.5ft 6s 16 18 mph 1026.7mb 40f 37f
1:04am 3.5ft 6s 16 18 mph 1027.3mb 40f 36f
12:04am 3.5ft 5s 16 20 mph 1026.8mb 40f 38f
Mon 02/20 11:04pm 3ft 5s 18 20 mph 1026.3mb 40f 39f
10:04pm 3ft 5s 20 22 mph 1025.8mb 40f 39f
9:04pm 2.5ft 5s 20 25 mph 1025.2mb 40f 40f
8:04pm 3.5ft 5s 13 18 mph 1024.8mb 40f 40f
7:04pm 3.5ft 5s 16 18 mph 1024.2mb 40f 41f
6:04pm 3ft 5s 11 13 mph 1023.5mb 40f 41f
5:04pm 2.5ft 5s 7 9 mph 1022mb 40f 40f
4:04pm 3.5ft 6s 11
mph
1021.3mb 40f 40f
3:04pm 3.5ft 5s 11 13 mph 1020.9mb 40f 39f
2:04pm 3.5ft 6s 11 13 mph 1020mb 40f 38f
1:04pm 4.5ft 6s 13 16 mph 1020mb 40f 38f
12:04pm 3.5ft 6s 16 18 mph 1020.1mb 40f 37f
11:04am 4.5ft 6s 18 20 mph 1020.1mb 40f 37f
10:04am 4.5ft 6s 18 20 mph 1019.7mb 40f 38f
9:04am 2.5ft 5s 16 18 mph 1019.2mb 40f 39f
8:04am 1.6ft 4s 13 16 mph 1018.4mb 40f 40f
7:04am 1.3ft 8s 13 16 mph 1017.2mb 40f 40f
6:04am 1.6ft 3s 13 18 mph 1015.6mb 40f 41f
5:04am 1.3ft 3s 16 20 mph 1014.5mb 40f 42f
4:04am 2.5ft 3s 16 20 mph 1013.6mb 40f 43f
3:04am 2ft 3s 20 25 mph 1012.7mb 40f 44f
2:04am 1.3ft 8s 13 16 mph 1012.3mb 40f 45f
1:04am 1ft 6s 16 18 mph 1011.8mb 40f 46f
12:04am 1ft 8s 9 11 mph 1011.5mb 40f 45f
Sun 02/19 11:04pm 1ft 8s 9 11 mph 1011mb 40f 45f
10:04pm 1ft 8s 7 9 mph 1010.5mb 40f 45f
9:04pm 1ft 9s 4
mph
1009.6mb 40f 45f
8:04pm 0.7ft  -  7
mph
1008.8mb 40f 48f
7:04pm 1ft 11s 4 7 mph 1008mb 40f 47f
6:04pm 1ft 3s 7 9 mph 1007.1mb 40f 48f
5:04pm 0.7ft  -  9 11 mph 1005.8mb 40f 49f
4:04pm 0.7ft  -  7
mph
1004.9mb 41f 48f
3:04pm 1ft 6s 7
mph
1004.2mb 40f 47f
2:04pm 1ft 7s 7 9 mph 1003.7mb 40f 46f
1:04pm 1ft 8s 11
mph
1003.3mb 40f 46f
12:04pm 1.3ft 3s 11
mph
1003.6mb 40f 45f
11:04am 1.6ft 3s 13
mph
1004.4mb 40f 45f
10:04am 2ft 3s 16
mph
1004.4mb 40f 45f
9:04am 2.5ft 3s 13 16 mph 1003.9mb 40f 44f
8:04am 2ft 3s 13 16 mph 1003.5mb 40f 44f
7:04am 2.5ft 3s 16 18 mph 1002.9mb 40f 44f
6:04am 2ft 3s 13 16 mph 1002.3mb 40f 44f
5:04am 2ft 4s 16
mph
1001.5mb 40f 44f